Location: Montreal
(45.5000°N, 73.5833°W)
Time: 01:24:57
(UTC-05:00)

Vanguard 1 - Pass Details

Date: 20 October 2017
Orbit: 650 x 3834 km, 34.2° (Epoch: 17 November)

Event Time Altitude Azimuth Distance (km) Brightness Sun altitude
Rises 23:11:02 0° 199° (SSW) 4,640 - -50.5°
Reaches altitude 10° 23:14:23 10° 185° (S) 4,064 - -50.8°
Maximum altitude 23:23:15 26° 135° (SE) 3,913 - -51.7°
Drops below altitude 10° 23:36:26 10° 89° (E) 6,219 - -52.8°
Exits shadow 23:37:30 - 87° (E) 6,439 14.0 -52.8°
Sets 23:43:17 0° 79° (E) 7,643 14.5 -53.3°
